Probability
0 0 0 0 0 0 0 0 0 0 0 1 1 1 1 2 3 5 8 12 12 13 14 17 17 16 18 17 17 18 18 16 16 13 11 9 7 4 3 3 4 6 6 4
0 0 0 0 0 0 0 0 0 0 0 0 0 0 1 3 5 7 12 15 14 13 13 16 16 16 17 18 18 19 18 17 14 10 9 8 6 4 4 4 4 6 6 5
0 0 0 0 0 0 0 0 0 0 0 0 0 1 2 4 7 12 15 16 15 13 12 14 15 15 16 16 17 17 17 16 13 9 7 7 6 5 4 4 4 5 5 5
0 0 0 0 0 0 0 0 0 0 0 0 0 1 2 3 6 10 13 13 14 13 12 13 14 15 15 14 13 13 15 15 12 8 6 6 6 6 5 4 4 4 4 4
0 0 0 0 0 0 0 0 0 0 0 0 0 0 1 1 2 4 6 9 11 11 11 12 13 14 14 12 10 11 12 12 10 6 3 4 4 5 4 3 2 2 2 2
0 0 0 0 0 0 0 0 0 0 0 0 0 0 0 1 1 2 3 5 7 8 10 11 12 13 12 10 9 9 9 8 6 3 1 1 2 2 1 1 1 1 1 1
0 0 0 0 0 0 0 0 0 0 0 0 0 0 1 2 2 2 2 4 5 6 9 11 12 11 10 9 8 7 6 5 3 1 1 1 0 0 0 0 0 0 0 0
0 0 0 0 0 0 0 0 0 0 0 0 0 1 2 3 3 2 2 4 5 6 7 9 10 10 10 9 7 6 6 4 3 2 1 0 0 0 0 0 0 0 0 0
0 0 0 0 0 0 0 0 0 0 0 0 0 1 3 3 3 2 2 3 4 4 5 6 8 9 10 9 7 6 6 5 4 3 1 0 0 0 0 0 0 0 0 0
0 0 1 0 0 0 0 0 0 0 0 0 0 1 2 2 1 2 1 1 2 2 3 4 6 8 9 8 6 5 5 5 6 5 3 2 1 1 1 1 0 0 0 0
0 0 0 0 0 0 0 0 0 0 0 0 0 0 0 0 0 0 0 0 0 1 3 4 5 6 7 7 5 4 4 5 5 6 5 5 4 3 3 2 1 0 0 0
0 0 0 0 0 0 0 0 0 0 0 0 0 0 0 0 0 0 0 0 0 1 2 5 5 5 5 5 4 4 4 4 4 4 5 6 6 5 4 3 2 1 1 1
0 0 0 0 0 0 0 0 0 0 0 0 0 0 0 0 0 0 0 0 0 1 2 4 5 4 3 3 3 3 3 3 3 3 4 5 6 6 5 4 3 3 2 2
0 0 0 0 0 0 0 0 0 0 0 0 0 0 0 0 0 0 0 0 1 2 3 4 5 5 4 3 2 2 1 1 2 3 3 4 4 5 6 5 4 4 4 4
0 0 0 0 0 0 0 0 0 0 0 0 0 0 0 0 0 0 0 1 2 4 4 4 5 6 5 4 3 3 2 1 2 3 4 4 4 4 4 5 5 4 5 5
0 0 0 0 0 0 0 0 0 0 0 0 0 0 0 0 0 0 0 1 3 4 3 3 5 6 6 4 4 4 3 3 3 4 5 5 4 3 3 4 4 4 4 5
0 0 0 0 0 0 0 0 1 1 1 1 0 0 0 0 0 0 1 2 3 3 3 3 4 6 5 4 4 3 3 4 4 4 5 5 4 3 3 3 3 4 4 4
0 0 0 0 0 0 0 0 1 1 1 1 0 0 0 0 0 0 1 2 2 2 2 3 3 4 5 6 5 4 4 5 5 5 5 5 4 3 3 3 3 3 3 4
0 0 0 0 0 0 0 0 0 1 1 1 0 0 0 0 0 0 0 1 1 0 1 2 2 3 5 8 8 6 6 6 6 6 6 5 4 3 3 3 3 3 3 3
0 0 0 0 0 0 0 0 0 0 0 0 0 0 0 0 0 0 0 0 0 0 0 1 2 3 5 8 9 8 6 6 6 6 6 5 4 3 3 3 3 3 3 3
0 0 0 0 0 0 0 0 0 0 0 0 0 0 0 0 0 0 0 0 0 0 0 2 3 4 5 6 7 6 5 4 5 6 5 4 3 3 3 3 3 3 3 3
0 0 0 0 0 0 0 0 0 0 0 0 0 0 0 0 0 0 0 0 0 0 0 1 3 5 5 6 6 6 4 3 4 4 3 3 2 2 2 2 3 3 3 3
0 0 0 0 0 0 0 0 0 0 0 0 0 0 0 1 1 0 0 0 0 0 0 2 4 4 4 5 6 5 4 3 3 2 1 1 1 1 1 1 1 2 2 2
0 0 0 0 0 0 0 0 0 0 0 0 0 0 1 2 2 1 0 0 0 0 1 3 4 4 3 4 4 4 3 3 3 1 0 0 0 0 0 0 0 1 1 1
0 0 0 0 0 0 0 0 0 0 0 0 0 0 1 2 2 1 0 0 0 1 1 3 3 3 2 3 3 3 3 3 2 1 0 0 0 0 0 0 0 0 0 0
0 0 0 0 0 0 0 0 0 0 0 0 0 0 0 1 1 0 0 0 1 2 2 3 3 2 1 2 3 3 3 3 2 1 0 0 0 0 0 0 0 0 0 0
Wind_Speed
2 1 5 9 8 8 6 6 7 7 4 1 2 3 3 2 4 5 6 6 5 6 5 6 6 6 6 5 6 6 6 5 4 3 2 2 1 1 1 1 2 3 3 3
1 6 11 8 7 7 7 8 8 5 4 2 2 2 1 1 3 6 7 7 6 4 4 5 5 5 4 5 6 6 5 5 4 3 2 2 2 1 1 1 1 2 3 3
8 9 7 6 7 7 9 8 7 6 3 1 2 3 3 3 0 3 5 7 7 9 8 6 6 5 5 4 5 5 5 5 4 4 2 2 2 2 1 1 0 1 2 3
7 8 6 7 9 8 8 8 5 3 1 2 1 2 6 3 3 3 4 6 8 8 8 8 7 6 6 5 4 4 4 3 3 3 3 4 3 2 2 1 1 1 1 2
7 6 6 9 10 8 8 5 2 1 2 0 1 1 6 2 3 3 4 6 6 8 9 8 8 8 7 6 5 4 4 3 3 3 3 3 2 2 1 1 1 1 0 1
9 7 6 8 9 6 5 2 4 4 4 2 3 3 5 3 5 3 4 5 6 7 7 7 7 7 6 5 5 5 5 3 3 3 3 4 3 3 3 2 1 1 0 0
6 7 6 4 4 4 1 3 3 4 2 5 2 2 6 5 3 4 4 6 6 7 7 7 7 7 7 6 6 5 5 4 3 3 3 3 3 3 3 3 2 1 1 0
4 6 5 2 4 5 5 6 7 4 5 4 1 3 5 4 1 1 3 5 5 6 6 7 8 9 8 8 6 6 6 4 4 3 2 2 3 2 2 2 2 2 2 2
5 6 3 3 3 4 2 2 6 6 1 1 2 2 4 3 2 2 3 5 5 5 6 7 7 7 8 8 7 7 6 5 4 4 3 3 3 3 3 2 2 2 2 2
5 3 4 3 0 0 4 3 4 4 2 2 2 2 4 3 2 0 2 3 4 4 4 5 6 6 6 6 6 5 5 5 4 4 3 3 2 3 3 3 2 2 2 2
3 3 3 2 2 3 2 2 3 3 4 4 2 5 5 6 4 3 3 3 4 4 5 5 4 5 5 5 5 5 5 4 3 3 3 2 2 2 2 2 2 2 2 3
3 5 1 4 4 3 4 4 5 4 2 3 3 6 3 5 4 4 4 3 3 4 5 5 5 5 5 5 5 5 4 4 4 3 3 3 2 2 2 1 1 2 2 2
4 6 2 5 5 3 1 2 3 5 4 3 4 6 2 2 2 3 4 4 3 3 4 4 5 5 5 5 5 5 4 4 3 3 3 2 2 2 2 2 2 2 2 2
6 5 5 6 6 3 2 2 2 5 4 4 5 5 3 3 3 3 3 5 5 4 5 5 5 5 5 5 4 4 4 4 3 3 3 3 2 2 2 1 1 1 2 3
5 3 2 3 4 1 0 2 1 3 5 6 5 5 6 6 5 4 4 5 5 5 4 6 7 6 5 4 4 4 3 3 3 4 3 3 2 2 1 1 1 2 2 3
3 2 1 1 1 1 2 2 2 1 1 3 4 4 4 3 2 2 4 5 6 5 6 6 7 7 6 6 5 4 3 3 3 4 4 3 3 2 2 2 1 1 1 2
1 3 2 2 3 3 2 3 1 1 0 4 4 4 3 2 2 4 4 4 5 5 5 6 7 7 6 6 6 5 4 3 3 3 3 3 3 3 2 2 1 1 1 2
5 3 3 1 2 2 5 2 2 4 2 2 3 2 3 4 3 3 4 5 5 5 6 5 5 5 5 5 4 5 5 5 4 3 3 3 3 3 2 2 2 2 2 2
4 6 4 3 2 3 3 3 0 3 2 2 4 3 2 3 5 3 2 4 6 6 6 5 5 5 5 5 5 5 5 4 4 4 3 3 3 3 3 3 3 2 2 2
3 5 5 3 3 3 4 5 3 6 1 2 2 3 2 4 3 3 2 1 3 4 4 4 4 4 5 5 5 5 4 4 4 4 4 4 3 3 3 4 3 2 2 3
3 2 2 3 2 3 5 6 4 3 4 3 1 2 2 2 3 3 0 1 2 3 3 4 5 4 5 5 6 5 4 4 4 4 3 3 3 4 3 3 2 2 2 2
1 1 1 2 2 4 5 3 1 4 3 1 2 2 3 2 1 1 2 1 1 2 3 3 4 3 4 5 6 5 4 4 3 3 3 3 3 3 3 2 2 1 2 2
1 2 2 3 3 3 1 1 2 3 3 1 1 2 4 3 2 2 1 1 1 2 2 2 3 3 3 4 5 5 4 3 3 3 3 2 3 2 2 3 2 1 1 1
3 2 3 2 1 2 2 3 3 2 2 1 2 2 3 3 2 2 2 1 1 2 2 2 3 3 3 3 3 4 3 3 4 3 3 2 2 1 1 1 2 2 2 2
3 2 3 2 2 4 4 4 3 4 3 3 3 2 2 4 3 2 2 2 2 2 2 2 3 3 4 3 2 2 3 3 3 3 2 1 1 2 1 1 1 2 3 3
2 1 2 3 3 1 3 3 3 4 3 2 2 2 1 2 2 2 2 2 2 2 1 2 2 2 3 3 3 2 3 3 3 2 2 2 1 1 2 1 1 2 2 3
Wind_Direction
228 134 234 235 224 225 246 261 269 264 261 326 253 241 250 181 148 154 159 162 162 160 147 138 147 150 145 141 139 143 145 150 145 138 138 140 146 146 122 161 151 146 142 139
3 247 241 243 247 246 254 260 265 274 267 205 237 272 264 172 171 173 171 163 160 150 129 137 142 134 146 161 150 146 149 153 157 158 161 157 150 163 159 140 120 139 142 148
208 241 247 253 252 250 260 243 242 238 285 355 57 332 298 292 134 143 161 158 159 160 159 163 158 151 148 153 160 155 158 158 155 147 126 104 79 66 61 67 85 140 156 157
229 247 247 258 257 238 257 248 243 239 174 279 121 274 285 264 282 183 175 169 168 161 158 158 158 159 161 159 142 130 137 135 139 136 135 140 141 150 191 176 170 166 163 157
231 222 230 246 250 236 236 245 241 213 163 346 354 143 280 284 261 244 197 179 170 162 159 160 161 162 157 148 139 132 123 117 115 123 140 138 134 154 141 119 122 119 117 143
238 236 224 238 253 247 241 345 10 37 63 304 246 177 262 244 230 229 200 183 173 162 156 154 154 146 139 137 135 132 129 131 134 128 131 138 139 136 123 119 128 134 70 73
267 262 246 230 264 289 303 89 26 355 356 254 231 173 244 259 226 192 199 187 175 166 157 152 151 148 148 149 149 147 146 146 150 142 143 149 151 150 152 153 150 146 139 157
225 266 250 231 202 214 233 156 162 202 223 263 310 217 249 268 271 171 166 166 160 161 161 164 162 160 162 163 161 158 157 155 159 156 164 162 153 155 166 167 157 170 184 193
200 246 257 243 226 173 183 197 175 149 186 208 260 274 296 332 8 58 112 131 142 155 163 172 166 165 164 164 168 167 161 161 169 169 167 168 164 162 171 178 162 167 183 176
168 228 275 273 55 193 152 149 94 113 148 245 267 253 251 257 259 59 128 157 156 150 147 160 162 166 169 168 165 161 161 169 172 174 178 175 174 172 174 167 169 170 176 159
146 158 288 324 180 195 123 91 109 123 152 161 234 260 224 206 212 200 202 180 164 157 160 160 162 161 150 146 148 152 156 161 168 175 175 155 157 169 161 169 187 181 168 157
149 124 239 267 263 189 151 161 149 153 209 165 178 261 253 196 202 194 198 190 165 164 166 161 155 148 143 146 150 149 158 158 159 155 150 155 151 146 145 168 184 172 172 168
128 109 64 345 346 359 62 147 155 137 132 162 175 251 263 166 187 194 189 183 170 161 153 148 144 147 148 148 149 147 147 152 150 141 135 130 133 144 166 178 176 166 168 169
109 113 155 193 228 231 250 262 165 137 157 187 208 220 257 221 215 214 187 170 160 152 153 147 146 152 158 156 154 150 148 153 152 147 148 146 153 165 179 164 161 187 184 172
91 126 181 216 231 210 227 276 217 176 185 178 204 207 231 223 207 196 171 153 140 143 149 152 157 160 162 156 154 157 158 163 161 154 157 172 178 171 153 140 159 176 181 179
76 135 122 302 289 76 21 328 273 200 191 168 160 233 238 210 151 148 155 148 146 157 162 159 158 157 160 162 164 162 159 163 162 168 174 176 168 159 159 171 167 165 187 183
118 116 88 294 322 26 338 282 275 54 148 174 196 219 161 124 151 172 162 158 164 162 156 157 162 166 168 169 166 166 161 160 160 164 174 174 169 166 182 191 169 189 203 188
146 126 126 131 36 224 240 273 125 105 53 80 105 123 151 170 181 168 159 168 170 167 164 163 165 167 168 165 161 154 153 158 163 169 176 177 175 180 192 187 196 214 204 194
155 143 128 129 163 262 295 332 313 123 43 68 118 104 78 97 58 17 177 163 171 174 176 172 170 168 165 162 158 149 152 160 163 178 193 198 191 190 199 210 220 220 205 214
80 108 125 137 150 218 265 311 340 95 40 316 125 131 106 86 83 278 291 167 160 168 169 167 157 150 157 167 156 150 161 166 182 193 200 198 190 190 202 216 223 222 210 216
37 52 119 147 167 261 284 318 18 117 222 271 147 148 121 135 202 227 262 198 184 164 158 156 149 157 169 165 153 157 169 191 201 193 192 192 190 193 201 208 213 219 212 209
152 138 145 134 158 253 306 9 118 204 210 173 117 127 127 126 116 84 71 67 126 131 139 149 148 158 166 161 153 162 189 203 190 180 183 195 202 209 200 196 217 210 191 205
87 171 165 162 198 244 321 138 196 150 121 102 125 138 133 118 131 127 108 98 111 142 159 157 151 152 158 162 160 172 198 183 168 164 180 198 211 220 193 185 197 196 187 199
353 32 83 73 3 330 7 30 33 80 101 118 137 138 124 130 151 143 140 150 139 137 169 167 140 145 162 176 174 185 186 168 157 169 188 196 200 225 219 178 180 181 191 204
317 19 50 54 318 350 359 0 12 22 39 55 72 78 102 119 135 160 169 179 177 163 179 166 160 166 176 178 181 183 174 160 157 170 187 199 194 186 181 201 216 211 218 205
323 156 153 220 241 218 273 307 13 39 23 44 68 41 40 120 146 149 165 179 166 160 149 142 150 168 180 178 181 183 175 161 159 170 189 199 203 200 189 187 317 331 250 234